STARLINK-1132 (45044 NORAD) Tracking and Keplerian Element Data

This shows tracking and keplerian element data for the satellite.

Feedback or suggestion? Click here.




ElementValue
Catalog45044
NameSTARLINK-1132
Epoch Orbit1048
Epoch Day93.91667824
Epoch Year2020
RAAN276.2327
Inclination53.0006
Eccentricity0.0003422
Argument of Perigee40.5717
Mean Anonmoly329.4679
Mean Motion15.43375048
Decay Rate0.04466727
L11 45044U 20006A 20093.91667824 .04466727 00000-0 86034-1 0 9990
L22 45044 53.0006 276.2327 0003422 40.5717 329.4679 15.43375048 10480

Live tracking and technical data element details for STARLINK-1132 (NORAD 45044). STARLINK-1132 can be tracked NOW for your location showing map with azimuth and elevation plus other details from your city location.

Track the satellite on the map from your city or location and see movement details for azimuth, elevation, latitude, longitude, range, height, and movement on the map or in text.







IsCatalogInMostPopularTable: catalog: 45044, numindb: 13
Update: records affected: 1



GetName: 45044 STARLINK-1132

Hit Count: updated at: Fri, 10 Apr 2020 18:53:12 GMT